Regional Weather Roundup
Issued by NWS

Home | Current Version | Previous Version | Text Only | Print | Product List | Glossary On
Versions: 1 2 3 4 5 6 7 8 9 10 11 12 13 14 15 16 17 18 19 20 21 22 23 24 25 26 27 28 29 30 31 32 33 34 35 36 37 38 39 40 41 42 43 44 45 46 47 48 49 50
000
ASUS42 KTBW 230317
RWRFL
FLORIDA REGIONAL WEATHER ROUNDUP
NATIONAL WEATHER SERVICE TAMPA BAY RUSKIN FL
1100 PM EDT TUE AUG 22 2017

NOTE: "FAIR" INDICATES FEW OR NO CLOUDS BELOW 12,000 FEET WITH NO
SIGNIFICANT WEATHER AND/OR OBSTRUCTIONS TO VISIBILITY.

FLZ001>010-012>015-112-114-115-230400-
PANHANDLE FLORIDA

CITY           SKY/WX    TMP DP  RH WIND       PRES   REMARKS
PENSACOLA      CLEAR     81  75  82 CALM      30.00R
PENSACOLA NAS  MOCLDY    77  74  90 CALM      29.99S
MILTON NAS     PTCLDY    75  74  96 CALM      30.01R
CRESTVIEW      CLOUDY    77  75  93 CALM      30.02R
DUKE FIELD     MOCLDY    78  76  94 S3        30.00S
VALPARAISO     MOCLDY    81  75  82 W2        29.99S
MARY ESTHER    CLEAR     79  75  86 CALM      29.98S
PANAMA CITY    FAIR      79  76  90 CALM      30.00R
TYNDALL AFB    CLEAR     83  76  79 S6        30.00F
APALACHICOLA   CLEAR     79  78  97 CALM      30.00S

STATION/POSITION SKY/WX   TEMP    WIND        PRES    WAVE   SWELL
                          AIR SEA DIR/SP/G            HT/PER HT/PER
                          (F)     (DEG/KT/KT) (MB)    (FT/S) (FT/S)
30.1N   87.6W              84 87  190/  4/  6 1015.5F   2/ 7   2/ 7
29.2N   88.2W              85 87  110/  4/  4 1016.2
28.8N   86.0W              85 87  110/  4/  6 1016.1R   2/ 7   2/ 7
PANAMA CITY BEAC           85     200/  7/  8 1016.3F
TOWER C                    83                 1016.6F
28.5N   84.5W              84 86   70/  2/  4 1015.9S   2/ 5   2/ 5

$$
FLZ011-016>038-118-127-128-134-139-239-230400-
NORTH FLORIDA

CITY           SKY/WX    TMP DP  RH WIND       PRES   REMARKS
MARIANNA       PTCLDY    79  76  90 W3        30.00R
TALLAHASSEE    PTCLDY    79  76  90 S6        30.00S
PERRY          CLEAR     79  77  95 CALM      30.01S FOG
LIVE OAK       PTCLDY    77  77 100 CALM      30.02S
CROSS CITY     CLEAR     78  76  95 CALM      30.05S
LAKE CITY      FAIR      77  75  94 SE7       30.02R
GAINESVILLE    CLEAR     79  73  82 SE6       30.04R
WILLISTON      CLEAR     79  73  83 CALM      30.02R
PALATKA        FAIR      75  75 100 CALM      30.02S
MAYPORT NAS    PTCLDY    82  76  81 S8        30.00F
JACKSONVILLE   PTCLDY    79  77  94 S5        30.00S
JAX NAS        PTCLDY    83  76  79 SE8       30.01F
JAX CECIL      CLEAR     79  75  89 SE7       30.01R
FERNANDINA BEA FAIR      82  73  74 S5        29.99F
ST AUGUSTINE   CLEAR     80  76  87 SE6       30.02S
PALM COAST     FAIR      77  77  99 CALM      30.02S

STATION/POSITION SKY/WX   TEMP    WIND        PRES    WAVE   SWELL
                          AIR SEA DIR/SP/G            HT/PER HT/PER
                          (F)     (DEG/KT/KT) (MB)    (FT/S) (FT/S)
SHELL POINT      NOT AVBL
KEATON BEACH               81      40/  2/  2 1015.6S
CEDAR KEY                  82     360/  5/  6 1016.2F
FERNANDINA                 83 85  150/  5/  8 1016.7F
30.7N   81.3W                 85                N/A     3/11   2/11
MAYPORT                    82 85  150/  4/  7 1016.6S
31.4N   80.9W              84 85  170/ 12/ 14 1015.5F   3/10   3/10
ST AUGUSTINE               83 83  140/  8/  9 1016.6S

$$
FLZ040-043>046-052-053-057-058-063-144-230400-
INTERIOR CENTRAL FLORIDA

CITY           SKY/WX    TMP DP  RH WIND       PRES   REMARKS
OCALA          CLEAR     80  73  79 VRB3      30.03R
THE VILLAGES     N/A     79  75  89 CALM      29.93R
LEESBURG       CLEAR     81  76  84 E8        30.03R
SANFORD        CLEAR     80  75  84 NE3       30.02R
ORLANDO EXEC   CLEAR     81  77  88 NE5       30.02R
ORLANDO INTL   PTCLDY    81  77  88 NE6       30.02R
KISSIMMEE      CLEAR     82  77  84 E7        30.03R
WINTER HAVEN   CLEAR     82  74  76 E8        30.03R
LAKELAND       CLEAR     81  73  78 E8        30.02S
BARTOW         FAIR      81  77  89 NE7       30.02S
SEBRING        FAIR      81  75  82 CALM      30.02R
OKEECHOBEE     CLEAR     77  73  88 CALM      30.00S

$$
FLZ041-047-054-059-064-141-147-230400-
EAST CENTRAL FLORIDA

CITY           SKY/WX    TMP DP  RH WIND       PRES   REMARKS
DAYTONA BEACH  PTCLDY    80  76  87 CALM      30.02S
DELAND         CLEAR     77  73  88 CALM      30.02S
JFK SPACE CTR  CLEAR     80  79  97 E3        30.00R
CAPE CANAVERAL CLEAR     80  75  85 SE7       30.00S
PATRICK AFB    CLEAR     83  77  83 E9        30.00S
MELBOURNE      CLEAR     83  77  82 SE12      30.00S
VERO BEACH     CLEAR     82  76  81 SE7       30.00S
FT PIERCE      PTCLDY    82  77  84 SE8       30.01R
STUART         CLEAR     82  79  89 SE7       30.01S

STATION/POSITION SKY/WX   TEMP    WIND        PRES    WAVE   SWELL
                          AIR SEA DIR/SP/G            HT/PER HT/PER
                          (F)     (DEG/KT/KT) (MB)    (FT/S) (FT/S)
28.5N   80.2W              84 82  110/ 10/ 12 1017.1R   3/10   3/10
28.9N   78.5W              84 85  130/ 10/ 14 1016.3R   4/10   5/10
TRIDENT PIER               82 86  100/  5/  8 1017.8R
28.4N   80.5W                 85                N/A     3/11   2/11
27.5N   80.2W                 84                N/A     3/11   2/11

$$
FLZ050-056-061-142-242-148-248-149-249-151-251-155-255-
160-260-230400-
WEST CENTRAL FLORIDA

CITY           SKY/WX    TMP DP  RH WIND       PRES   REMARKS
CRYSTAL RIVER  FAIR      77  72  83 CALM      30.01S
INVERNESS      FAIR      79  75  89 CALM      30.02R
BROOKSVILLE    CLEAR     81  72  74 E7        30.02R
CLEARWATER AIR FAIR      84  68  58 E3        30.00R
ST PETE CLEARW CLEAR     87  71  58 E10       30.00R
TAMPA INTL     PTCLDY    87  70  56 VRB5      30.01R
TAMPA EXEC     PTCLDY    79  70  73 CALM      30.01S
PLANT CITY     CLEAR     82  77  83 E5        30.03S
MACDILL AFB    CLEAR     84  76  78 SE10      30.00R
PETER O KNIGHT MOCLDY    86  77  74 E8        30.01R HX  97
ST PETERSBURG  CLEAR     87  76  69 SE18      29.99R HX  97
SARASOTA       CLEAR     83  75  77 E8        29.99R
VENICE         FAIR      84  75  74 MISG      30.00R

STATION/POSITION SKY/WX   TEMP    WIND        PRES    WAVE   SWELL
                          AIR SEA DIR/SP/G            HT/PER HT/PER
                          (F)     (DEG/KT/KT) (MB)    (FT/S) (FT/S)
CLEARWATER BEACH           87 89   50/  4/  6 1016.0R
MIDDLE TAMPA BAY           85     110/ 11/ 12 1016.1R
VENICE                     86 88   70/  8/ 11 1015.4R

$$
FLZ066-069-070-075>078-162-262-165-265-230400-
SOUTHWEST FLORIDA AND KEYS

CITY           SKY/WX    TMP DP  RH WIND       PRES   REMARKS
PUNTA GORDA    CLEAR     83  75  77 SE9       30.02R
FT MYERS       CLOUDY    82  76  81 E6        30.00S
SOUTHWEST INTL CLOUDY    81  74  79 E3        30.01R
NAPLES         CLOUDY    80  76  87 SE8       30.00R
IMMOKALEE      MOCLDY    79  75  89 CALM      30.01S
MARATHON       CLOUDY    81  78  91 SW8G16    29.98R
KEY WEST NAS   CLOUDY    84  80  88 NW5       29.97S THUNDER HX  97
KEY WEST INTL  CLOUDY    85  78  80 CALM      29.97R HX  96

STATION/POSITION SKY/WX   TEMP    WIND        PRES    WAVE   SWELL
                          AIR SEA DIR/SP/G            HT/PER HT/PER
                          (F)     (DEG/KT/KT) (MB)    (FT/S) (FT/S)
NAPLES                        90  160/  6/  9 1015.7R
DRY TORTUGAS               85     310/  9/ 10 1015.4R
SAND KEY                   85                 1015.9R

$$
FLZ067-068-071>074-168-172>174-230400-
SOUTHEAST FLORIDA

CITY           SKY/WX    TMP DP  RH WIND       PRES   REMARKS
W PALM BEACH   PTCLDY    84  76  76 E10       30.01R
BOCA RATON     MOCLDY    84  77  79 SE12      30.00R
FT LAUDER-EXEC MOCLDY    84  78  82 E10       30.00R HX  95
FT LAUDERDALE  MOCLDY    85  77  77 SE10      29.99R HX  95
POMPANO BEACH  PTCLDY    85  77  77 E8        30.00R HX  95
PEMBROKE PINES CLOUDY    85  76  74 E7        30.01R
OPA LOCKA      CLOUDY    84  79  85 E7        30.00R HX  96
MIAMI          MOCLDY    86  76  71 E7        30.00R HX  96
WEST KENDALL   CLOUDY    85  76  74 SE6       29.99R
HOMESTEAD      CLOUDY    84  77  80 SE5       29.99S

STATION/POSITION SKY/WX   TEMP    WIND        PRES    WAVE   SWELL
                          AIR SEA DIR/SP/G            HT/PER HT/PER
                          (F)     (DEG/KT/KT) (MB)    (FT/S) (FT/S)
PORT EVERGLADES            85      90/  6/ 10 1015.7R
VIRGINIA KEY               85 88   90/  7/  9 1015.4R
LAKE WORTH                        100/  8/ 10   N/A
FOWEY ROCKS                85 85  110/ 12/ 13 1016.2R
SETTLEMENT POINT           83     130/  7/  9 1015.9F

$$




USA.gov is the U.S. government's official web portal to all federal, state and local government web resources and services.